Regional Weather Roundup
Issued by NWS

Home | Current Version | Previous Version | Graphics & Text | Print | Product List | Glossary On
Versions: 1 2 3 4 5 6 7 8 9 10 11 12 13 14 15 16 17 18 19 20 21 22 23 24 25 26 27 28 29 30 31 32 33 34 35 36 37 38 39 40 41 42 43 44 45 46 47 48 49 50
000
ASUS43 KMPX 201601
RWRMN
WEATHER ROUNDUP FOR MINNESOTA
NATIONAL WEATHER SERVICE TWIN CITIES/CHANHASSEN MN
1100 AM CDT THU JUL 20 2017


NOTE: "FAIR" INDICATES FEW OR NO CLOUDS BELOW 12,000 FEET WITH NO
SIGNIFICANT WEATHER AND/OR OBSTRUCTIONS TO VISIBILITY. N/A MEANS
CURRENT SKY AND/OR WEATHER CONDITIONS ARE NOT AVAILABLE.

MNZ060>063-068>070-201700-
   Twin Cities Metro

CITY           SKY/WX    TMP DP  RH WIND       PRES   REMARKS
TWIN CITIES    PTSUNNY   79  70  74 CALM      30.03R
ST PAUL        MOSUNNY   77  72  84 SE5       30.03R
CRYSTAL        CLOUDY    78  66  66 NW5       30.02R
BLAINE         PTSUNNY   79  70  73 W3        30.03S
LAKEVILLE      PTSUNNY   73  73 100 CALM      30.03S
EDEN PRAIRIE   MOSUNNY   79  70  74 CALM      30.03R
SOUTH ST PAUL  MOSUNNY   76  72  87 CALM      30.03R FOG
LAKE ELMO      FAIR      77  70  78 CALM      30.04R
$$
MNZ001>005-007-008-013>017-022>024-027-028-201700-
   Northwest Minnesota

CITY           SKY/WX    TMP DP  RH WIND       PRES   REMARKS
BEMIDJI        SUNNY     73  61  65 N3        30.04R
HALLOCK        SUNNY     72  57  60 CALM      30.03R
ROSEAU         SUNNY     70  57  64 CALM      30.02F
WARROAD        SUNNY     70  54  56 E5        30.03S
CROOKSTON      SUNNY     73  61  64 CALM      30.03R
FOSSTON        SUNNY     75  70  83 CALM      30.04S
DETROIT LAKES  MOSUNNY   73  64  73 CALM      30.05S
MOORHEAD       SUNNY     75  63  64 N5        30.03S
PARK RAPIDS    SUNNY     80  62  54 VRB5      30.03S
MAHNOMEN       FAIR      74  61  63 CALM      30.03S
$$
MNZ006-009>011-018-025>026-201700-
   North Central Minnesota

CITY           SKY/WX    TMP DP  RH WIND       PRES   REMARKS
BAUDETTE       SUNNY     71  54  54 NW9       30.02R
FLAG ISLAND    MOSUNNY   68  48  49 N6        30.01S
INTL FALLS     SUNNY     74  58  57 NW10      30.00R
WASKISH        SUNNY     73  61  64 SW6       30.02S
BIG FORK       SUNNY     75  61  60 NW3       30.02S
LONGVILLE      SUNNY     75  63  64 N3        30.02S
GRAND RAPIDS   MOSUNNY   76  66  71 NW6       30.04R
CRANE LAKE     MOSUNNY   72  61  68 NW5       30.01R
ORR            MOSUNNY   73  59  60 W6        29.99R
COOK           SUNNY     73  61  64 W7        30.01S
WALKER         FAIR      75  62  64 N3        30.03S
$$
MNZ012-019>021-037-201700-
   Northeast Minnesota

CITY           SKY/WX    TMP DP  RH WIND       PRES   REMARKS
DULUTH         MOSUNNY   76  63  64 NW10      30.01R
ELY            MOSUNNY   73  57  56 NW10G17   29.99S
HIBBING        PTSUNNY   75  66  73 NW12      30.00S
EVELETH        MOSUNNY   78  61  55 NW10G16   30.01S
DULUTH HARBOR  SUNNY     77  66  69 CALM      29.99R
TWO HARBORS    SUNNY     81  66  61 W7        29.96S
SILVER BAY     MOSUNNY   79  63  57 NW5       29.95S
GRAND MARAIS     N/A     64  58  80 SW10G18   29.92S
G MARAIS ARPRT MOSUNNY   73  57  56 W10G17    29.98S
$$
MNZ029>031-032-039>041-046>048-054>057-064-201700-
   West Central Minnesota

CITY           SKY/WX    TMP DP  RH WIND       PRES   REMARKS
FERGUS FALLS   CLOUDY    75  66  73 NE3       30.04R
WHEATON        MOSUNNY   75  70  83 CALM      30.05R
MORRIS         CLOUDY    79  70  73 S3        30.03R
ALEXANDRIA     CLOUDY    75  67  76 CALM      30.07R
ELBOW LAKE     PTSUNNY   74  71  89 S3        30.05R
WADENA         SUNNY     77  64  65 CALM      30.05R
GLENWOOD       MOSUNNY   77  68  73 S3        30.06R
APPLETON       PTSUNNY   79  68  69 CALM      30.02F
BENSON         MOSUNNY   79  68  69 CALM      30.05S
ORTONVILLE     MOSUNNY   79  68  69 CALM      30.02F
MADISON        CLOUDY    79  70  73 E3        30.03S
WILLMAR        FAIR      77  70  78 NE6       30.05S
$$
MNZ033>034-036-042>043-049>051-058-059-201700-
   Central Minnesota

CITY           SKY/WX    TMP DP  RH WIND       PRES   REMARKS
ST CLOUD       PTSUNNY   76  69  79 SW5       30.04R
SAUK CENTRE    FAIR      75  67  75 CALM      30.05R
PAYNESVILLE    PTSUNNY   78  68  72 E3        30.05S
AITKIN         SUNNY     75  64  69 CALM      30.02R
PINE RIVER     SUNNY     75  64  69 CALM      30.06R
BRAINERD       SUNNY     77  64  64 CALM      30.03S
STAPLES        SUNNY     75  64  69 N3        30.05R
LONG PRAIRIE   FAIR      73  66  78 SE3       30.05S
LITTLE FALLS   MOSUNNY   73  63  68 CALM      30.04S
LITCHFIELD     CLOUDY    79  70  73 CALM      30.05S
BUFFALO        MOSUNNY   76  66  71 N3        30.05S
MAPLE LAKE     PTSUNNY   78  68  72 CALM      30.05S
HUTCHINSON     SUNNY     78  70  76 N3        30.04F
$$
MNZ037-044-045-052-053-201700-
   East Central Minnesota

CITY           SKY/WX    TMP DP  RH WIND       PRES   REMARKS
PRINCETON      MOSUNNY   81  70  69 CALM      30.03S
MORA           PTSUNNY   73  64  73 CALM      30.04S
CAMBRIDGE      MOSUNNY   79  66  65 SW3       30.02R
RUSH CITY      MOSUNNY   77  67  71 CALM      30.03R
MOOSE LAKE     CLOUDY    75  64  69 CALM      30.01R
HINCKLEY       FAIR      75  68  78 CALM      30.02S
CLOQUET        SUNNY     75  61  60 NW5       30.01S
MCGREGOR       SUNNY     77  64  65 CALM      30.03S
$$
MNZ071>073-080-081-089-090-097-098-201700-
   Southwest Minnesota

CITY           SKY/WX    TMP DP  RH WIND       PRES   REMARKS
MONTEVIDEO     PTSUNNY   79  72  78 CALM      30.04S
GRANITE FALLS  CLOUDY    79  70  73 N8        30.05S
CANBY          PTSUNNY   79  68  68 CALM      30.05S
MARSHALL       PTSUNNY   76  69  79 VRB6      30.05R
REDWOOD FALLS  CLOUDY    75  68  78 SE3       30.03R
OLIVIA         PTSUNNY   77  68  73 N7        30.03F
PIPESTONE      PTSUNNY   81  64  57 E12       30.04R
WINDOM         MOSUNNY   79  70  73 E7        30.05R
WORTHINGTON    PTSUNNY   78  69  73 E14       30.05R
JACKSON        PTSUNNY   77  70  78 CALM      30.04R
TRACY          CLOUDY    77  71  80 SE5       30.05R
SLAYTON        HVY RAIN  77  66  69 E12       30.06R
$$
MNZ065>067-074>077-082>085-091>093-201700-
   South Central Minnesota

CITY           SKY/WX    TMP DP  RH WIND       PRES   REMARKS
MANKATO        PTSUNNY   77  71  82 E6        30.03F
NEW ULM        MOSUNNY   77  70  78 E5        30.02S
ST JAMES       MOSUNNY   77  72  83 E7        30.03S
FAIRMONT         N/A     79  73  82 VRB7      30.03R
GLENCOE        MOSUNNY   75  73  91 CALM      30.03S
FARIBAULT      CLOUDY    79  72  78 CALM      30.03F
OWATONNA       CLOUDY    79  72  78 E3        30.03S
WASECA         CLOUDY    77  72  83 NE5       30.04S
ALBERT LEA     MOSUNNY   79  72  78 E7        30.02F
$$
MNZ078>079-086>088-094>096-201700-
   Southeast Minnesota

CITY           SKY/WX    TMP DP  RH WIND       PRES   REMARKS
ROCHESTER      PTSUNNY   79  71  76 NE5       30.04R
RED WING       MOSUNNY   77  70  78 S6        30.01S
STANTON        CLOUDY    77  71  79 S3        30.02S
DODGE CENTER   MOSUNNY   79  70  73 CALM      30.04S
WINONA         PTSUNNY   77  70  78 CALM      30.02S
AUSTIN         MOSUNNY   79  70  73 E7        30.02F
PRESTON        CLOUDY    77  68  74 CALM      30.04S
$$
ABBREVIATIONS USED IN REMARKS
   TC - TEMPERATURES IN CELSIUS
  WCI - WIND CHILL INDEX
   HX - HEAT INDEX
  VSB - VISIBILITY
$$



USA.gov is the U.S. government's official web portal to all federal, state and local government web resources and services.